Location: Unspecified
(0.0000°N, 0.0000°E)
Time: 20:13:13
(UTC+02:00)

ARIANE 5 R/B - Visible Passes

Search period start: 30 July 2015 00:00
Search period end: 09 August 2015 00:00
Orbit: 677 x 38426 km, 6.7° (Epoch: 28 July)

Date Brightness Start Highest point End Pass type
(mag) Time Alt. Az. Time Alt. Az. Time Alt. Az.
30 Jul 7.8 00:12:20 10° W 00:43:01 79° N 11:14:18 10° ESE visible
30 Jul 7.4 23:14:11 10° W 23:32:20 78° N 10:16:13 10° E visible
31 Jul 6.7 22:16:29 10° W 22:28:21 77° N 09:17:31 10° E visible
01 Aug 5.9 21:19:03 10° W 21:27:17 77° N 08:17:51 10° E visible
02 Aug 5.2 20:21:48 10° W 20:27:47 78° N 07:16:39 10° E visible
03 Aug 4.5 19:24:34 10° W 19:29:10 81° N 06:12:47 10° E visible
04 Aug 3.8 18:27:13 10° W 18:31:06 90° S 05:03:34 10° E visible
05 Aug 3.4 17:29:27 10° WSW 17:33:19 75° S 17:39:09 10° E visible
06 Aug 3.6 06:53:42 10° W 16:35:37 61° S 16:39:41 10° E visible
06 Aug 3.6 16:30:40 10° WSW 16:35:37 61° S 16:39:41 10° E visible
07 Aug 4.2 05:11:39 10° W 15:37:49 57° S 15:41:34 10° E visible
08 Aug 5.0 03:59:18 10° W 14:39:46 58° S 14:44:06 10° ESE visible
